Weather History for Abingdon, VA

Change the Weather History Date:

Wednesday, March 13, 2013

  Actual Average (KTRI) Record (KTRI)
Temperature  
Mean Temperature 34 °F 46 °F  
Max Temperature 39 °F 58 °F 78 °F (1967)
Min Temperature 29 °F 34 °F 6 °F (1960)
Degree Days  
Heating Degree Days 30 19  
Month to date heating degree days 269  
Since 1 July heating degree days 3651  
Cooling Degree Days 0 0  
Month to date cooling degree days 0  
Year to date cooling degree days 0  
Moisture  
Dew Point 26 °F    
Average Humidity 71    
Maximum Humidity 98    
Minimum Humidity 49    
Precipitation  
Precipitation 0.00 in 0.10 in 1.39 in (1975)
Month to date precipitation 1.42  
Year to date precipitation 8.24  
Snow  
Snow 0.00 in 0.10 in - ()
Month to date snowfall 0.8  
Since 1 July snowfall 11.6  
Snow Depth -    
Sea Level Pressure  
Sea Level Pressure 30.07 in    
Wind  
Wind Speed 7 mph (NW)    
Max Wind Speed 18 mph    
Max Gust Speed 28 mph    
Visibility 10 miles    
Events Snow    
T = Trace of Precipitation, MM = Missing Value Source: NWS Daily Summary

Daily Weather History Graph

Daily Weather History Graph

Search for Another Location

Airport:

Trip Planner

Search our weather history database for the weather conditions in past years. The results will help you decide how hot, cold, wet, or windy it might be!

Date:

Astronomy

Mar. 13, 2013 Rise Set
Actual Time 7:41 AM EDT 7:33 PM EDT
Civil Twilight 7:15 AM EDT 7:59 PM EDT
Nautical Twilight 6:45 AM EDT 8:29 PM EDT
Astronomical Twilight 6:15 AM EDT 9:00 PM EDT
Moon 8:24 AM EDT (3/13) 9:44 PM EDT (3/13)
Length of Visible Light 12h 43m
Length of Day
11h 52m
Waxing Crescent, 4% of the Moon is Illuminated
Mar 13
Waxing Crescent
Mar 19
First Quarter
Mar 27
Full
Apr 3
Last Quarter
Apr 10
New

Hourly Weather History & Observations

Time (EDT) Temp. Windchill Dew Point Humidity Pressure Visibility Wind Dir Wind Speed Gust Speed Precip Events Conditions
12:15 AM 35.6 °F 31.7 °F 32.0 °F 87% 30.02 in 10.0 mi NW 4.6 mph - N/A   Clear
12:35 AM 35.4 °F 31.5 °F 32.0 °F 87% 30.03 in 10.0 mi NW 4.6 mph - N/A   Clear
12:55 AM 34.7 °F 31.8 °F 31.6 °F 89% 30.03 in 10.0 mi WNW 3.5 mph - N/A   Scattered Clouds
1:15 AM 36.0 °F 33.3 °F 32.0 °F 86% 30.03 in 10.0 mi WSW 3.5 mph - N/A   Scattered Clouds
1:55 AM 36.1 °F - 32.2 °F 86% 30.04 in 10.0 mi Calm Calm - N/A   Overcast
2:15 AM 38.7 °F 35.2 °F 30.7 °F 73% 30.04 in 10.0 mi WNW 4.6 mph - N/A   Mostly Cloudy
2:35 AM 38.5 °F 35.0 °F 30.6 °F 73% 30.03 in 10.0 mi West 4.6 mph - N/A   Scattered Clouds
2:55 AM 38.1 °F 34.6 °F 30.0 °F 73% 30.03 in 10.0 mi WNW 4.6 mph - N/A   Clear
3:15 AM 37.6 °F 35.1 °F 30.0 °F 74% 30.03 in 10.0 mi West 3.5 mph - N/A   Clear
3:35 AM 37.0 °F 33.3 °F 29.8 °F 75% 30.02 in 10.0 mi WNW 4.6 mph - N/A   Clear
3:55 AM 35.2 °F 32.4 °F 29.7 °F 80% 30.02 in 10.0 mi WSW 3.5 mph - N/A   Clear
4:15 AM 34.7 °F - 30.4 °F 84% 30.01 in 10.0 mi Calm Calm - N/A   Clear
4:55 AM 32.0 °F - 29.1 °F 89% 30.01 in 10.0 mi Calm Calm - N/A   Clear
5:15 AM 32.7 °F - 28.9 °F 86% 30.00 in 10.0 mi Calm Calm - N/A   Clear
5:35 AM 31.6 °F 28.3 °F 29.1 °F 90% 30.01 in 10.0 mi WSW 3.5 mph - N/A   Clear
6:15 AM 31.1 °F - 28.8 °F 91% 30.01 in 10.0 mi Calm Calm - N/A   Clear
6:35 AM 30.9 °F - 28.6 °F 91% 30.00 in 10.0 mi Calm Calm - N/A   Scattered Clouds
6:55 AM 30.9 °F - 28.9 °F 92% 30.00 in 10.0 mi Calm Calm - N/A   Mostly Cloudy
7:15 AM 30.6 °F - 28.4 °F 92% 30.01 in 10.0 mi Calm Calm - N/A   Overcast
7:35 AM 32.0 °F 27.5 °F 30.9 °F 96% 30.01 in 10.0 mi West 4.6 mph - N/A   Mostly Cloudy
7:55 AM 32.0 °F 26.4 °F 31.5 °F 98% 30.01 in 10.0 mi West 5.8 mph - N/A   Mostly Cloudy
8:15 AM 32.2 °F 27.7 °F 31.5 °F 97% 30.02 in 10.0 mi West 4.6 mph - N/A   Overcast
8:35 AM 33.1 °F 28.7 °F 32.0 °F 96% 30.02 in 10.0 mi West 4.6 mph - N/A   Overcast
8:55 AM 33.8 °F 29.6 °F 32.0 °F 93% 30.02 in 10.0 mi WNW 4.6 mph - N/A   Overcast
9:15 AM 34.5 °F 30.4 °F 31.6 °F 89% 30.03 in 10.0 mi NW 4.6 mph - N/A   Overcast
9:35 AM 34.9 °F - 30.2 °F 83% 30.04 in 10.0 mi Calm Calm - N/A   Overcast
9:55 AM 35.6 °F 30.7 °F 30.7 °F 82% 30.05 in 10.0 mi West 5.8 mph - N/A   Overcast
10:15 AM 36.3 °F 31.6 °F 31.3 °F 82% 30.05 in 10.0 mi WSW 5.8 mph - N/A   Overcast
10:35 AM 36.9 °F 28.7 °F 30.0 °F 76% 30.05 in 10.0 mi West 12.7 mph 16.1 mph N/A   Overcast
10:55 AM 37.6 °F 28.8 °F 29.5 °F 73% 30.04 in 10.0 mi West 15.0 mph 19.6 mph N/A   Overcast
11:15 AM 37.6 °F 29.6 °F 29.1 °F 72% 30.04 in 10.0 mi West 12.7 mph 21.9 mph N/A   Overcast
11:35 AM 38.1 °F 30.2 °F 27.5 °F 66% 30.04 in 10.0 mi WNW 12.7 mph 25.3 mph N/A   Overcast
11:55 AM 35.8 °F 27.3 °F 32.0 °F 86% 30.05 in 5.0 mi NW 12.7 mph 20.7 mph N/A Snow Light Snow
12:15 PM 36.5 °F 26.3 °F 30.0 °F 77% 30.05 in 10.0 mi NW 18.4 mph 27.6 mph N/A Snow Light Snow
12:35 PM 38.1 °F 28.4 °F 28.4 °F 68% 30.05 in 10.0 mi WNW 18.4 mph 21.9 mph N/A   Overcast
12:55 PM 39.6 °F 32.1 °F 23.7 °F 53% 30.06 in 10.0 mi WNW 12.7 mph 26.5 mph N/A   Overcast
1:15 PM 37.4 °F 29.8 °F 23.9 °F 58% 30.06 in 10.0 mi NNW 11.5 mph 23.0 mph N/A   Overcast
1:35 PM 39.2 °F 32.5 °F 22.1 °F 50% 30.06 in 10.0 mi NW 10.4 mph 24.2 mph N/A   Overcast
1:55 PM 38.3 °F 29.7 °F 22.3 °F 53% 30.06 in 10.0 mi NNW 15.0 mph 20.7 mph N/A   Overcast
2:15 PM 38.3 °F 29.3 °F 21.9 °F 52% 30.06 in 10.0 mi NW 16.1 mph 23.0 mph N/A   Overcast
2:35 PM 39.0 °F 30.3 °F 23.4 °F 53% 30.05 in 10.0 mi NNW 16.1 mph 20.7 mph N/A   Overcast
2:55 PM 39.2 °F 31.6 °F 23.2 °F 53% 30.06 in 10.0 mi WNW 12.7 mph 24.2 mph N/A   Overcast
3:15 PM 38.8 °F 29.4 °F 23.0 °F 53% 30.05 in 10.0 mi WNW 18.4 mph 26.5 mph N/A   Overcast
3:35 PM 37.9 °F 28.2 °F 24.1 °F 57% 30.06 in 10.0 mi NW 18.4 mph 27.6 mph N/A   Overcast
3:55 PM 37.6 °F 28.4 °F 24.4 °F 59% 30.07 in 10.0 mi WNW 16.1 mph 21.9 mph N/A   Overcast
4:15 PM 38.3 °F 30.9 °F 21.7 °F 51% 30.07 in 10.0 mi WNW 11.5 mph 21.9 mph N/A   Overcast
4:35 PM 38.1 °F 31.7 °F 20.7 °F 49% 30.07 in 10.0 mi WNW 9.2 mph 21.9 mph N/A   Overcast
4:55 PM 37.4 °F 27.8 °F 21.2 °F 52% 30.08 in 10.0 mi NNW 17.3 mph 24.2 mph N/A   Overcast
5:15 PM 37.0 °F 27.7 °F 19.9 °F 50% 30.09 in 10.0 mi WNW 16.1 mph 23.0 mph N/A   Overcast
5:35 PM 36.5 °F 27.4 °F 21.2 °F 54% 30.09 in 10.0 mi NW 15.0 mph 25.3 mph N/A   Overcast
5:55 PM 34.5 °F 26.7 °F 24.8 °F 68% 30.11 in 10.0 mi North 10.4 mph 19.6 mph N/A Snow Light Snow
6:15 PM 34.7 °F 27.5 °F 24.3 °F 66% 30.11 in 10.0 mi NNW 9.2 mph 24.2 mph N/A   Overcast
6:35 PM 35.2 °F 25.8 °F 22.1 °F 59% 30.12 in 10.0 mi NW 15.0 mph 23.0 mph N/A   Overcast
6:55 PM 34.7 °F 29.6 °F 20.3 °F 56% 30.12 in 10.0 mi NNW 5.8 mph 20.7 mph N/A   Overcast
7:15 PM 34.2 °F 25.7 °F 20.3 °F 57% 30.13 in 10.0 mi NNW 11.5 mph 17.3 mph N/A   Overcast
7:35 PM 33.1 °F 24.9 °F 20.8 °F 61% 30.14 in 10.0 mi NNW 10.4 mph - N/A   Overcast
7:55 PM 32.2 °F 23.8 °F 20.3 °F 62% 30.15 in 10.0 mi North 10.4 mph 18.4 mph N/A   Overcast
8:15 PM 32.0 °F 22.5 °F 20.1 °F 62% 30.16 in 10.0 mi NNW 12.7 mph 17.3 mph N/A   Mostly Cloudy
8:35 PM 32.0 °F 22.1 °F 20.3 °F 62% 30.17 in 10.0 mi North 13.8 mph 17.3 mph N/A   Overcast
8:55 PM 31.8 °F 21.8 °F 20.1 °F 62% 30.17 in 10.0 mi NNW 13.8 mph 21.9 mph N/A   Overcast
9:15 PM 31.5 °F 22.9 °F 20.1 °F 63% 30.18 in 10.0 mi North 10.4 mph - N/A   Overcast
9:35 PM 31.1 °F 21.9 °F 20.1 °F 64% 30.18 in 10.0 mi NW 11.5 mph - N/A   Overcast
9:55 PM 31.1 °F 21.9 °F 19.9 °F 63% 30.18 in 10.0 mi North 11.5 mph 19.6 mph N/A Snow Light Snow
10:15 PM 30.6 °F 21.8 °F 19.6 °F 64% 30.19 in 10.0 mi NNW 10.4 mph - N/A   Overcast
10:35 PM 30.6 °F 23.1 °F 18.9 °F 62% 30.19 in 10.0 mi NNW 8.1 mph 23.0 mph N/A   Overcast
10:55 PM 30.0 °F 22.4 °F 19.4 °F 65% 30.20 in 10.0 mi North 8.1 mph - N/A Snow Light Snow
11:15 PM 30.0 °F 21.7 °F 18.3 °F 62% 30.20 in 10.0 mi North 9.2 mph - N/A   Overcast
11:35 PM 30.0 °F 21.1 °F 18.0 °F 61% 30.21 in 10.0 mi NW 10.4 mph - N/A   Overcast
11:55 PM 29.3 °F 19.6 °F 19.9 °F 68% 30.22 in 10.0 mi NNW 11.5 mph 17.3 mph N/A Snow Light Snow